Year,Month,Day,Hour,Minute,Value (Times are PST for temperature in C)
2006,08,23,00,00,12.60
2006,08,23,00,01,12.60
2006,08,23,00,02,12.60
2006,08,23,00,03,12.60
2006,08,23,00,04,12.60
2006,08,23,00,05,12.60
2006,08,23,00,06,12.60
2006,08,23,00,07,12.60
2006,08,23,00,08,12.60
2006,08,23,00,09,12.50
2006,08,23,00,10,12.50
2006,08,23,00,11,12.50
2006,08,23,00,12,12.50
2006,08,23,00,13,12.50
2006,08,23,01,02,12.30
2006,08,23,01,03,12.30
2006,08,23,01,04,12.30
2006,08,23,01,05,12.30
2006,08,23,01,06,12.30
2006,08,23,01,07,12.30
2006,08,23,01,08,12.30
2006,08,23,01,09,12.30
2006,08,23,01,10,12.30
2006,08,23,01,11,12.30
2006,08,23,01,12,12.30
2006,08,23,01,13,12.40
2006,08,23,01,14,12.40
2006,08,23,01,15,12.40
2006,08,23,01,16,12.40
2006,08,23,01,17,12.40
2006,08,23,01,18,12.50
2006,08,23,01,19,12.50
2006,08,23,01,20,12.50
2006,08,23,01,21,12.50
2006,08,23,01,22,12.50
2006,08,23,01,23,12.50
2006,08,23,01,24,12.50
2006,08,23,01,25,12.60
2006,08,23,01,26,12.60
2006,08,23,01,27,12.60
2006,08,23,01,28,12.60
2006,08,23,01,29,12.60
2006,08,23,01,30,12.60
2006,08,23,01,31,12.60
2006,08,23,01,32,12.60
2006,08,23,01,33,12.60
2006,08,23,01,34,12.60
2006,08,23,01,35,12.60
2006,08,23,01,36,12.60
2006,08,23,01,37,12.70
2006,08,23,01,38,12.70
2006,08,23,01,39,12.70
2006,08,23,01,40,12.70
2006,08,23,01,41,12.70
2006,08,23,01,42,12.70
2006,08,23,01,43,12.70
2006,08,23,01,44,12.70
2006,08,23,01,45,12.70
2006,08,23,01,46,12.70
2006,08,23,01,47,12.70
2006,08,23,01,48,12.80
2006,08,23,01,49,12.80
2006,08,23,01,50,12.80
2006,08,23,01,51,12.80
2006,08,23,01,52,12.80
2006,08,23,01,53,12.80
2006,08,23,01,54,12.80
2006,08,23,01,55,12.80
2006,08,23,01,56,12.90
2006,08,23,01,57,12.90
2006,08,23,01,58,12.90
2006,08,23,01,59,12.90
2006,08,23,02,00,12.90
2006,08,23,02,01,12.90
2006,08,23,02,02,12.90
2006,08,23,02,03,12.90
2006,08,23,02,04,13.00
2006,08,23,02,05,13.00
2006,08,23,02,06,13.00
2006,08,23,02,07,13.00
2006,08,23,02,08,13.00
2006,08,23,02,09,13.00
2006,08,23,02,10,13.00
2006,08,23,02,11,13.00
2006,08,23,02,12,13.00
2006,08,23,02,13,13.00
2006,08,23,02,14,13.10
2006,08,23,02,15,13.10
2006,08,23,02,16,13.10
2006,08,23,02,17,13.10
2006,08,23,02,18,13.10
2006,08,23,02,19,13.10
2006,08,23,02,20,13.10
2006,08,23,02,21,13.10
2006,08,23,02,22,13.10
2006,08,23,02,23,13.10
2006,08,23,02,24,13.10
2006,08,23,02,25,13.10
2006,08,23,02,26,13.20
2006,08,23,02,27,13.20
2006,08,23,02,28,13.20
2006,08,23,02,29,13.20
2006,08,23,02,30,13.20
2006,08,23,02,31,13.20
2006,08,23,02,32,13.20
2006,08,23,02,33,13.20
2006,08,23,02,34,13.20
2006,08,23,02,35,13.20
2006,08,23,02,36,13.20
2006,08,23,02,37,13.20
2006,08,23,02,38,13.20
2006,08,23,02,39,13.30
2006,08,23,02,40,13.30
2006,08,23,02,41,13.30
2006,08,23,02,42,13.30
2006,08,23,02,43,13.30
2006,08,23,02,44,13.30
2006,08,23,02,45,13.30
2006,08,23,02,46,13.30
2006,08,23,02,47,13.30
2006,08,23,02,48,13.30
2006,08,23,02,49,13.30
2006,08,23,02,50,13.30
2006,08,23,02,51,13.30
2006,08,23,02,52,13.30
2006,08,23,02,53,13.30
2006,08,23,02,54,13.30
2006,08,23,02,55,13.30
2006,08,23,02,56,13.30
2006,08,23,02,57,13.30
2006,08,23,02,58,13.30
2006,08,23,02,59,13.30
2006,08,23,03,00,13.30
2006,08,23,03,01,13.30
2006,08,23,03,02,13.30
2006,08,23,03,03,13.30
2006,08,23,03,04,13.30
2006,08,23,03,05,13.30
2006,08,23,03,06,13.30
2006,08,23,03,07,13.30
2006,08,23,03,08,13.30
2006,08,23,03,09,13.30
2006,08,23,03,10,13.20
2006,08,23,03,11,13.20
2006,08,23,03,12,13.20
2006,08,23,03,13,13.20
2006,08,23,03,14,13.20
2006,08,23,03,15,13.20
2006,08,23,03,16,13.20
2006,08,23,03,17,13.20
2006,08,23,03,18,13.20
2006,08,23,03,19,13.20
2006,08,23,03,20,13.20
2006,08,23,03,21,13.20
2006,08,23,03,22,13.20
2006,08,23,03,23,13.20
2006,08,23,03,24,13.20
2006,08,23,03,25,13.20
2006,08,23,03,26,13.10
2006,08,23,03,27,13.10
2006,08,23,03,28,13.10
2006,08,23,03,29,13.10
2006,08,23,03,30,13.10
2006,08,23,03,31,13.10
2006,08,23,03,32,13.10
2006,08,23,03,33,13.10
2006,08,23,03,34,13.10
2006,08,23,03,35,13.10
2006,08,23,03,36,13.10
2006,08,23,03,37,13.10
2006,08,23,03,38,13.10
2006,08,23,03,39,13.10
2006,08,23,03,40,13.10
2006,08,23,03,41,13.10
2006,08,23,03,42,13.10
2006,08,23,03,43,13.10
2006,08,23,03,44,13.10
2006,08,23,03,45,13.10
2006,08,23,03,46,13.10
2006,08,23,03,47,13.10
2006,08,23,03,48,13.10
2006,08,23,03,49,13.10
2006,08,23,03,50,13.10
2006,08,23,03,51,13.10
2006,08,23,03,52,13.10
2006,08,23,03,53,13.10
2006,08,23,03,54,13.10
2006,08,23,03,55,13.10
2006,08,23,03,56,13.10
2006,08,23,03,57,13.10
2006,08,23,03,58,13.10
2006,08,23,03,59,13.10
2006,08,23,04,00,13.10
2006,08,23,04,01,13.10
2006,08,23,04,02,13.10
2006,08,23,04,03,13.10
2006,08,23,04,04,13.10
2006,08,23,04,05,13.10
2006,08,23,04,06,13.10
2006,08,23,04,07,13.10
2006,08,23,04,08,13.10
2006,08,23,04,09,13.10
2006,08,23,04,10,13.10
2006,08,23,04,11,13.10
2006,08,23,04,12,13.10
2006,08,23,04,13,13.10
2006,08,23,04,14,13.10
2006,08,23,04,15,13.10
2006,08,23,04,16,13.20
2006,08,23,04,17,13.20
2006,08,23,04,18,13.20
2006,08,23,04,19,13.20
2006,08,23,04,20,13.20
2006,08,23,04,21,13.20
2006,08,23,04,22,13.20
2006,08,23,04,23,13.20
2006,08,23,04,24,13.20
2006,08,23,04,25,13.20
2006,08,23,04,26,13.20
2006,08,23,04,27,13.20
2006,08,23,04,28,13.20
2006,08,23,04,29,13.20
2006,08,23,04,30,13.30
2006,08,23,04,31,13.30
2006,08,23,04,32,13.30
2006,08,23,04,33,13.30
2006,08,23,04,34,13.30
2006,08,23,04,35,13.30
2006,08,23,04,36,13.30
2006,08,23,04,37,13.30
2006,08,23,04,38,13.30
2006,08,23,04,39,13.30
2006,08,23,04,40,13.30
2006,08,23,04,41,13.30
2006,08,23,04,42,13.30
2006,08,23,04,43,13.30
2006,08,23,04,44,13.30
2006,08,23,04,45,13.30
2006,08,23,04,46,13.30
2006,08,23,04,47,13.30
2006,08,23,04,48,13.30
2006,08,23,04,49,13.30
2006,08,23,04,50,13.30
2006,08,23,04,51,13.30
2006,08,23,04,52,13.30
2006,08,23,04,53,13.30
2006,08,23,04,54,13.30
2006,08,23,04,55,13.30
2006,08,23,04,56,13.30
2006,08,23,04,57,13.30
2006,08,23,04,58,13.30
2006,08,23,04,59,13.30
2006,08,23,05,00,13.30
2006,08,23,05,01,13.30
2006,08,23,05,02,13.30
2006,08,23,05,03,13.30
2006,08,23,05,04,13.30
2006,08,23,05,05,13.30
2006,08,23,05,06,13.30
2006,08,23,05,07,13.30
2006,08,23,05,08,13.30
2006,08,23,05,09,13.30
2006,08,23,05,10,13.30
2006,08,23,05,11,13.30
2006,08,23,05,12,13.30
2006,08,23,05,13,13.30
2006,08,23,05,14,13.30
2006,08,23,05,15,13.30
2006,08,23,05,16,13.30
2006,08,23,05,17,13.20
2006,08,23,05,18,13.20
2006,08,23,05,19,13.20
2006,08,23,05,20,13.20
2006,08,23,05,21,13.20
2006,08,23,05,22,13.20
2006,08,23,05,23,13.20
2006,08,23,05,24,13.20
2006,08,23,05,25,13.20
2006,08,23,05,26,13.20
2006,08,23,05,27,13.20
2006,08,23,05,28,13.20
2006,08,23,05,29,13.20
2006,08,23,05,30,13.20
2006,08,23,05,31,13.20
2006,08,23,05,32,13.20
2006,08,23,05,33,13.20
2006,08,23,05,34,13.20
2006,08,23,05,35,13.20
2006,08,23,05,36,13.20
2006,08,23,05,37,13.10
2006,08,23,05,38,13.10
2006,08,23,05,39,13.10
2006,08,23,05,40,13.10
2006,08,23,05,41,13.10
2006,08,23,05,42,13.10
2006,08,23,05,43,13.10
2006,08,23,05,44,13.10
2006,08,23,05,45,13.10
2006,08,23,05,46,13.10
2006,08,23,05,47,13.10
2006,08,23,05,48,13.10
2006,08,23,05,49,13.10
2006,08,23,05,50,13.10
2006,08,23,05,51,13.10
2006,08,23,05,52,13.10
2006,08,23,05,53,13.10
2006,08,23,05,54,13.10
2006,08,23,05,55,13.10
2006,08,23,05,56,13.10
2006,08,23,05,57,13.10
2006,08,23,05,58,13.10
2006,08,23,05,59,13.10
2006,08,23,06,00,13.10
2006,08,23,06,01,13.10
2006,08,23,06,02,13.10
2006,08,23,06,03,13.20
2006,08,23,06,04,13.20
2006,08,23,06,05,13.20
2006,08,23,06,06,13.20
2006,08,23,06,07,13.20
2006,08,23,06,08,13.20
2006,08,23,06,09,13.20
2006,08,23,06,10,13.20
2006,08,23,06,11,13.20
2006,08,23,06,12,13.30
2006,08,23,06,13,13.30
2006,08,23,06,14,13.30
2006,08,23,06,15,13.30
2006,08,23,06,16,13.30
2006,08,23,06,17,13.30
2006,08,23,06,18,13.30
2006,08,23,06,19,13.30
2006,08,23,06,20,13.30
2006,08,23,06,21,13.30
2006,08,23,06,22,13.30
2006,08,23,06,23,13.30
2006,08,23,06,24,13.30
2006,08,23,06,25,13.30
2006,08,23,06,26,13.30
2006,08,23,06,27,13.30
2006,08,23,06,28,13.30
2006,08,23,06,29,13.30
2006,08,23,06,30,13.30
2006,08,23,06,31,13.30
2006,08,23,06,32,13.30
2006,08,23,06,33,13.30
2006,08,23,06,34,13.30
2006,08,23,06,35,13.30
2006,08,23,06,36,13.30
2006,08,23,06,37,13.30
2006,08,23,06,38,13.30
2006,08,23,06,39,13.30
2006,08,23,06,40,13.30
2006,08,23,06,41,13.30
2006,08,23,06,42,13.30
2006,08,23,06,43,13.30
2006,08,23,06,44,13.30
2006,08,23,06,45,13.30
2006,08,23,06,46,13.30
2006,08,23,06,47,13.30
2006,08,23,06,48,13.30
2006,08,23,06,49,13.20
2006,08,23,06,50,13.20
2006,08,23,06,51,13.20
2006,08,23,06,52,13.20
2006,08,23,06,53,13.20
2006,08,23,06,54,13.20
2006,08,23,06,55,13.20
2006,08,23,06,56,13.20
2006,08,23,06,57,13.20
2006,08,23,06,58,13.30
2006,08,23,06,59,13.30
2006,08,23,07,00,13.30
2006,08,23,07,01,13.30
2006,08,23,07,02,13.30
2006,08,23,07,03,13.30
2006,08,23,07,04,13.30
2006,08,23,07,05,13.30
2006,08,23,07,06,13.30
2006,08,23,07,07,13.30
2006,08,23,07,08,13.30
2006,08,23,07,09,13.30
2006,08,23,07,10,13.30
2006,08,23,07,11,13.30
2006,08,23,07,12,13.30
2006,08,23,07,13,13.30
2006,08,23,07,14,13.30
2006,08,23,07,15,13.30
2006,08,23,07,16,13.30
2006,08,23,07,17,13.40
2006,08,23,07,18,13.40
2006,08,23,07,19,13.40
2006,08,23,07,20,13.40
2006,08,23,07,21,13.50
2006,08,23,07,22,13.50
2006,08,23,07,23,13.50
2006,08,23,07,24,13.50
2006,08,23,07,25,13.50
2006,08,23,07,26,13.60
2006,08,23,07,27,13.60
2006,08,23,07,28,13.60
2006,08,23,07,29,13.60
2006,08,23,07,30,13.60
2006,08,23,07,31,13.70
2006,08,23,07,32,13.70
2006,08,23,07,33,13.70
2006,08,23,07,34,13.70
2006,08,23,07,35,13.70
2006,08,23,07,36,13.70
2006,08,23,07,37,13.70
2006,08,23,07,38,13.70
2006,08,23,07,39,13.80
2006,08,23,07,40,13.80
2006,08,23,07,41,13.90
2006,08,23,07,42,13.90
2006,08,23,07,43,13.90
2006,08,23,07,44,13.90
2006,08,23,07,45,13.90
2006,08,23,07,46,13.90
2006,08,23,07,47,13.90
2006,08,23,07,48,13.90
2006,08,23,07,49,14.00
2006,08,23,07,50,14.00
2006,08,23,07,51,14.00
2006,08,23,07,52,14.00
2006,08,23,07,53,14.00
2006,08,23,07,54,14.00
2006,08,23,07,55,14.00
2006,08,23,07,56,14.10
2006,08,23,07,57,14.10
2006,08,23,07,58,14.10
2006,08,23,07,59,14.10
2006,08,23,08,00,14.20
2006,08,23,08,01,14.20
2006,08,23,08,02,14.20
2006,08,23,08,03,14.20
2006,08,23,08,04,14.20
2006,08,23,08,05,14.20
2006,08,23,08,06,14.30
2006,08,23,08,07,14.30
2006,08,23,08,08,14.30
2006,08,23,08,09,14.40
2006,08,23,08,10,14.40
2006,08,23,08,11,14.40
2006,08,23,08,12,14.50
2006,08,23,08,13,14.50
2006,08,23,08,14,14.50
2006,08,23,08,15,14.50
2006,08,23,08,16,14.60
2006,08,23,08,17,14.60
2006,08,23,08,18,14.60
2006,08,23,08,19,14.60
2006,08,23,08,20,14.70
2006,08,23,08,21,14.70
2006,08,23,08,22,14.70
2006,08,23,08,23,14.80
2006,08,23,08,24,14.80
2006,08,23,08,25,14.90
2006,08,23,08,26,14.90
2006,08,23,08,27,14.90
2006,08,23,08,28,15.00
2006,08,23,08,29,15.00
2006,08,23,08,30,15.00
2006,08,23,08,31,15.10
2006,08,23,08,32,15.10
2006,08,23,08,33,15.10
2006,08,23,08,34,15.20
2006,08,23,08,35,15.20
2006,08,23,08,36,15.30
2006,08,23,08,37,15.30
2006,08,23,08,38,15.30
2006,08,23,08,39,15.40
2006,08,23,08,40,15.40
2006,08,23,08,41,15.50
2006,08,23,08,42,15.50
2006,08,23,08,43,15.50
2006,08,23,08,44,15.60
2006,08,23,08,45,15.60
2006,08,23,08,46,15.60
2006,08,23,08,47,15.60
2006,08,23,08,48,15.70
2006,08,23,08,49,15.70
2006,08,23,08,50,15.70
2006,08,23,08,51,15.80
2006,08,23,08,52,15.80
2006,08,23,08,53,15.80
2006,08,23,08,54,15.80
2006,08,23,08,55,15.80
2006,08,23,08,56,15.80
2006,08,23,08,57,15.90
2006,08,23,08,58,15.90
2006,08,23,08,59,15.90
2006,08,23,09,00,16.00
2006,08,23,09,01,16.10
2006,08,23,09,02,16.10
2006,08,23,09,03,16.10
2006,08,23,09,04,16.10
2006,08,23,09,05,16.10
2006,08,23,09,06,16.10
2006,08,23,09,07,16.10
2006,08,23,09,08,16.20
2006,08,23,09,09,16.20
2006,08,23,09,10,16.20
2006,08,23,09,11,16.30
2006,08,23,09,12,16.40
2006,08,23,09,13,16.40
2006,08,23,09,14,16.40
2006,08,23,09,15,16.50
2006,08,23,09,16,16.60
2006,08,23,09,17,16.70
2006,08,23,09,18,16.70
2006,08,23,09,19,16.70
2006,08,23,09,20,16.70
2006,08,23,09,21,16.70
2006,08,23,09,22,16.70
2006,08,23,09,23,16.70
2006,08,23,09,24,16.70
2006,08,23,09,25,16.70
2006,08,23,09,26,16.70
2006,08,23,09,27,16.70
2006,08,23,09,28,16.80
2006,08,23,09,29,16.80
2006,08,23,09,30,16.80
2006,08,23,09,31,16.80
2006,08,23,09,32,16.90
2006,08,23,09,33,16.90
2006,08,23,09,34,16.90
2006,08,23,09,35,17.00
2006,08,23,09,36,17.10
2006,08,23,09,37,17.20
2006,08,23,09,38,17.20
2006,08,23,09,39,17.20
2006,08,23,09,40,17.30
2006,08,23,09,41,17.30
2006,08,23,09,42,17.30
2006,08,23,09,43,17.40
2006,08,23,09,44,17.40
2006,08,23,09,45,17.40
2006,08,23,09,46,17.40
2006,08,23,09,47,17.40
2006,08,23,09,48,17.40
2006,08,23,09,49,17.40
2006,08,23,09,50,17.40
2006,08,23,09,51,17.40
2006,08,23,09,52,17.40
2006,08,23,09,53,17.50
2006,08,23,09,54,17.60
2006,08,23,09,55,17.70
2006,08,23,09,56,17.80
2006,08,23,09,57,17.80
2006,08,23,09,58,17.80
2006,08,23,09,59,17.90
2006,08,23,10,00,17.90
2006,08,23,10,01,18.00
2006,08,23,10,02,18.10
2006,08,23,10,03,18.20
2006,08,23,10,04,18.30
2006,08,23,10,05,18.30
2006,08,23,10,06,18.40
2006,08,23,10,07,18.40
2006,08,23,10,08,18.50
2006,08,23,10,09,18.50
2006,08,23,10,10,18.60
2006,08,23,10,11,18.60
2006,08,23,10,12,18.60
2006,08,23,10,13,18.70
2006,08,23,10,14,18.80
2006,08,23,10,15,18.80
2006,08,23,10,16,18.80
2006,08,23,10,17,18.80
2006,08,23,10,18,18.90
2006,08,23,10,19,18.90
2006,08,23,10,20,19.10
2006,08,23,10,21,19.10
2006,08,23,10,22,19.10
2006,08,23,10,23,19.20
2006,08,23,10,24,19.30
2006,08,23,10,25,19.30
2006,08,23,10,26,19.30
2006,08,23,10,27,19.30
2006,08,23,10,28,19.30
2006,08,23,10,29,19.30
2006,08,23,10,30,19.30
2006,08,23,10,31,19.30
2006,08,23,10,32,19.20
2006,08,23,10,33,19.20
2006,08,23,10,34,19.10
2006,08,23,10,35,19.20
2006,08,23,10,36,19.10
2006,08,23,10,37,19.10
2006,08,23,10,38,19.10
2006,08,23,10,39,19.00
2006,08,23,10,40,18.90
2006,08,23,10,41,18.80
2006,08,23,10,42,18.80
2006,08,23,10,43,18.80
2006,08,23,10,44,18.80
2006,08,23,10,45,18.80
2006,08,23,10,46,18.80
2006,08,23,10,47,18.70
2006,08,23,10,48,18.70
2006,08,23,10,49,18.70
2006,08,23,10,50,18.80
2006,08,23,10,51,18.90
2006,08,23,10,52,18.90
2006,08,23,10,53,18.90
2006,08,23,10,54,18.90
2006,08,23,10,55,19.00
2006,08,23,10,56,19.10
2006,08,23,10,57,19.10
2006,08,23,10,58,19.10
2006,08,23,10,59,19.20
2006,08,23,11,00,19.30
2006,08,23,11,01,19.30
2006,08,23,11,02,19.30
2006,08,23,11,03,19.30
2006,08,23,11,04,19.40
2006,08,23,11,05,19.40
2006,08,23,11,06,19.30
2006,08,23,11,07,19.20
2006,08,23,11,08,19.20
2006,08,23,11,09,19.20
2006,08,23,11,10,19.20
2006,08,23,11,11,19.30
2006,08,23,11,12,19.30
2006,08,23,11,13,19.30
2006,08,23,11,14,19.30
2006,08,23,11,15,19.30
2006,08,23,11,16,19.30
2006,08,23,11,17,19.30
2006,08,23,11,18,19.30
2006,08,23,11,19,19.30
2006,08,23,11,20,19.40
2006,08,23,11,21,19.40
2006,08,23,11,22,19.50
2006,08,23,11,23,19.50
2006,08,23,11,24,19.60
2006,08,23,11,25,19.80
2006,08,23,11,26,19.90
2006,08,23,11,27,20.00
2006,08,23,11,28,20.20
2006,08,23,11,29,20.30
2006,08,23,11,30,20.30
2006,08,23,11,31,20.30
2006,08,23,11,32,20.30
2006,08,23,11,33,20.30
2006,08,23,11,34,20.30
2006,08,23,11,35,20.20
2006,08,23,11,36,20.20
2006,08,23,11,37,20.20
2006,08,23,11,38,20.20
2006,08,23,11,39,20.20
2006,08,23,11,40,20.20
2006,08,23,11,41,20.20
2006,08,23,11,42,20.20
2006,08,23,11,43,20.20
2006,08,23,11,44,20.20
2006,08,23,11,45,20.20
2006,08,23,11,46,20.30
2006,08,23,11,47,20.40
2006,08,23,11,48,20.50
2006,08,23,11,49,20.50
2006,08,23,11,50,20.60
2006,08,23,11,51,20.60
2006,08,23,11,52,20.60
2006,08,23,11,53,20.60
2006,08,23,11,54,20.60
2006,08,23,11,55,20.50
2006,08,23,11,56,20.30
2006,08,23,11,57,20.20
2006,08,23,11,58,20.20
2006,08,23,11,59,20.20
2006,08,23,12,00,20.20
2006,08,23,12,01,20.20
2006,08,23,12,02,20.20
2006,08,23,12,03,20.40
2006,08,23,12,04,20.50
2006,08,23,12,05,20.50
2006,08,23,12,06,20.30
2006,08,23,12,07,20.30
2006,08,23,12,08,20.30
2006,08,23,12,09,20.30
2006,08,23,12,10,20.30
2006,08,23,12,11,20.20
2006,08,23,12,12,20.20
2006,08,23,12,13,20.20
2006,08,23,12,14,20.20
2006,08,23,12,15,20.20
2006,08,23,12,16,20.20
2006,08,23,12,17,20.40
2006,08,23,12,18,20.40
2006,08,23,12,19,20.40
2006,08,23,12,20,20.40
2006,08,23,12,21,20.20
2006,08,23,12,22,20.20
2006,08,23,12,23,20.20
2006,08,23,12,24,20.20
2006,08,23,12,25,20.20
2006,08,23,12,26,20.20
2006,08,23,12,27,20.20
2006,08,23,12,28,20.20
2006,08,23,12,29,20.30
2006,08,23,12,30,20.40
2006,08,23,12,31,20.50
2006,08,23,12,32,20.70
2006,08,23,12,33,20.80
2006,08,23,12,34,20.90
2006,08,23,12,35,21.00
2006,08,23,12,36,21.00
2006,08,23,12,37,21.10
2006,08,23,12,38,21.00
2006,08,23,12,39,20.90
2006,08,23,12,40,20.90
2006,08,23,12,41,20.90
2006,08,23,12,42,20.90
2006,08,23,12,43,20.90
2006,08,23,12,44,21.00
2006,08,23,12,45,20.90
2006,08,23,12,46,20.80
2006,08,23,12,47,20.60
2006,08,23,12,48,20.50
2006,08,23,12,49,20.50
2006,08,23,12,50,20.40
2006,08,23,12,51,20.50
2006,08,23,12,52,20.50
2006,08,23,12,53,20.70
2006,08,23,12,54,20.80
2006,08,23,12,55,20.80
2006,08,23,12,56,20.80
2006,08,23,12,57,20.80
2006,08,23,12,58,20.70
2006,08,23,12,59,20.60
2006,08,23,13,00,20.50
2006,08,23,13,01,20.60
2006,08,23,13,02,20.70
2006,08,23,13,03,20.70
2006,08,23,13,04,20.70
2006,08,23,13,05,20.80
2006,08,23,13,06,20.80
2006,08,23,13,07,21.00
2006,08,23,13,08,21.10
2006,08,23,13,09,21.20
2006,08,23,13,10,21.30
2006,08,23,13,11,21.40
2006,08,23,13,12,21.60
2006,08,23,13,13,21.70
2006,08,23,13,14,21.80
2006,08,23,13,15,21.90
2006,08,23,13,16,21.70
2006,08,23,13,17,21.50
2006,08,23,13,18,21.40
2006,08,23,13,19,21.30
2006,08,23,13,20,21.30
2006,08,23,13,21,21.40
2006,08,23,13,22,21.40
2006,08,23,13,23,21.60
2006,08,23,13,24,21.60
2006,08,23,13,25,21.60
2006,08,23,13,26,21.70
2006,08,23,13,27,21.80
2006,08,23,13,28,21.80
2006,08,23,13,29,21.80
2006,08,23,13,30,21.80
2006,08,23,13,31,21.80
2006,08,23,13,32,21.80
2006,08,23,13,33,21.70
2006,08,23,13,34,21.60
2006,08,23,13,35,21.50
2006,08,23,13,36,21.30
2006,08,23,13,37,21.40
2006,08,23,13,38,21.50
2006,08,23,13,39,21.60
2006,08,23,13,40,21.50
2006,08,23,13,41,21.40
2006,08,23,13,42,21.40
2006,08,23,13,43,21.40
2006,08,23,13,44,21.30
2006,08,23,13,45,21.30
2006,08,23,13,46,21.30
2006,08,23,13,47,21.30
2006,08,23,13,48,21.30
2006,08,23,13,49,21.30
2006,08,23,13,50,21.30
2006,08,23,13,51,21.20
2006,08,23,13,52,21.10
2006,08,23,13,53,21.00
2006,08,23,13,54,21.00
2006,08,23,13,55,20.90
2006,08,23,13,56,21.00
2006,08,23,13,57,21.00
2006,08,23,13,58,21.10
2006,08,23,13,59,21.20
2006,08,23,14,00,21.20
2006,08,23,14,01,21.20
2006,08,23,14,02,21.20
2006,08,23,14,03,21.30
2006,08,23,14,04,21.40
2006,08,23,14,05,21.50
2006,08,23,14,06,21.60
2006,08,23,14,07,21.60
2006,08,23,14,08,21.60
2006,08,23,14,09,21.60
2006,08,23,14,10,21.60
2006,08,23,14,11,21.60
2006,08,23,14,12,21.60
2006,08,23,14,13,21.60
2006,08,23,14,14,21.70
2006,08,23,14,15,21.70
2006,08,23,14,16,21.80
2006,08,23,14,17,21.80
2006,08,23,14,18,21.70
2006,08,23,14,19,21.80
2006,08,23,14,20,21.80
2006,08,23,14,21,21.70
2006,08,23,14,22,21.60
2006,08,23,14,23,21.60
2006,08,23,14,24,21.60
2006,08,23,14,25,21.60
2006,08,23,14,26,21.60
2006,08,23,14,27,21.60
2006,08,23,14,28,21.40
2006,08,23,14,29,21.40
2006,08,23,14,30,21.40
2006,08,23,14,31,21.50
2006,08,23,14,32,21.50
2006,08,23,14,33,21.50
2006,08,23,14,34,21.40
2006,08,23,14,35,21.40
2006,08,23,14,36,21.40
2006,08,23,14,37,21.60
2006,08,23,14,38,21.60
2006,08,23,14,39,21.60
2006,08,23,14,40,21.50
2006,08,23,14,41,21.30
2006,08,23,14,42,21.30
2006,08,23,14,43,21.30
2006,08,23,14,44,21.30
2006,08,23,14,45,21.30
2006,08,23,14,46,21.30
2006,08,23,14,47,21.30
2006,08,23,14,48,21.30
2006,08,23,14,49,21.40
2006,08,23,14,50,21.40
2006,08,23,14,51,21.60
2006,08,23,14,52,21.60
2006,08,23,14,53,21.60
2006,08,23,14,54,21.60
2006,08,23,14,55,21.60
2006,08,23,14,56,21.60
2006,08,23,14,57,21.60
2006,08,23,14,58,21.60
2006,08,23,14,59,21.60
2006,08,23,15,00,21.50
2006,08,23,15,01,21.30
2006,08,23,15,02,21.10
2006,08,23,15,03,21.00
2006,08,23,15,04,20.90
2006,08,23,15,05,20.80
2006,08,23,15,06,20.80
2006,08,23,15,07,20.70
2006,08,23,15,08,20.70
2006,08,23,15,09,20.60
2006,08,23,15,10,20.40
2006,08,23,15,11,20.30
2006,08,23,15,12,20.20
2006,08,23,15,13,20.20
2006,08,23,15,14,20.10
2006,08,23,15,15,20.10
2006,08,23,15,16,20.10
2006,08,23,15,17,20.10
2006,08,23,15,18,20.10
2006,08,23,15,19,20.10
2006,08,23,15,20,19.90
2006,08,23,15,21,19.90
2006,08,23,15,22,19.90
2006,08,23,15,23,19.80
2006,08,23,15,24,19.80
2006,08,23,15,25,19.90
2006,08,23,15,26,19.90
2006,08,23,15,27,19.90
2006,08,23,15,28,19.90
2006,08,23,15,29,19.90
2006,08,23,15,30,19.80
2006,08,23,15,31,19.80
2006,08,23,15,32,19.80
2006,08,23,15,33,19.70
2006,08,23,15,34,19.80
2006,08,23,15,35,19.80
2006,08,23,15,36,19.80
2006,08,23,15,37,19.90
2006,08,23,15,38,19.90
2006,08,23,15,39,19.90
2006,08,23,15,40,19.90
2006,08,23,15,41,19.90
2006,08,23,15,42,19.90
2006,08,23,15,43,19.90
2006,08,23,15,44,19.90
2006,08,23,15,45,19.80
2006,08,23,15,46,19.70
2006,08,23,15,47,19.60
2006,08,23,15,48,19.60
2006,08,23,15,49,19.50
2006,08,23,15,50,19.50
2006,08,23,15,51,19.30
2006,08,23,15,52,19.20
2006,08,23,15,53,19.10
2006,08,23,15,54,19.00
2006,08,23,15,55,18.90
2006,08,23,15,56,18.90
2006,08,23,15,57,18.90
2006,08,23,15,58,18.90
2006,08,23,15,59,18.80
2006,08,23,16,00,18.80
2006,08,23,16,01,18.80
2006,08,23,16,02,18.80
2006,08,23,16,03,18.80
2006,08,23,16,04,18.80
2006,08,23,16,05,18.80
2006,08,23,16,06,18.90
2006,08,23,16,07,18.80
2006,08,23,16,08,18.80
2006,08,23,16,09,18.80
2006,08,23,16,10,18.90
2006,08,23,16,11,18.90
2006,08,23,16,12,18.90
2006,08,23,16,13,18.80
2006,08,23,16,14,18.70
2006,08,23,16,15,18.70
2006,08,23,16,16,18.70
2006,08,23,16,17,18.60
2006,08,23,16,18,18.50
2006,08,23,16,19,18.50
2006,08,23,16,20,18.40
2006,08,23,16,21,18.50
2006,08,23,16,22,18.50
2006,08,23,16,23,18.60
2006,08,23,16,24,18.70
2006,08,23,16,25,18.80
2006,08,23,16,26,18.80
2006,08,23,16,27,18.90
2006,08,23,16,28,18.80
2006,08,23,16,29,18.70
2006,08,23,16,30,18.60
2006,08,23,16,31,18.40
2006,08,23,16,32,18.30
2006,08,23,16,33,18.20
2006,08,23,16,34,18.20
2006,08,23,16,35,18.30
2006,08,23,16,36,18.30
2006,08,23,16,37,18.30
2006,08,23,16,38,18.30
2006,08,23,16,39,18.30
2006,08,23,16,40,18.30
2006,08,23,16,41,18.30
2006,08,23,16,42,18.20
2006,08,23,16,43,18.20
2006,08,23,16,44,18.20
2006,08,23,16,45,18.20
2006,08,23,16,46,18.20
2006,08,23,16,47,18.20
2006,08,23,16,48,18.20
2006,08,23,16,49,18.20
2006,08,23,16,50,18.20
2006,08,23,16,51,18.20
2006,08,23,16,52,18.30
2006,08,23,16,53,18.30
2006,08,23,16,54,18.30
2006,08,23,16,55,18.30
2006,08,23,16,56,18.30
2006,08,23,16,57,18.20
2006,08,23,16,58,18.20
2006,08,23,16,59,18.20
2006,08,23,17,00,18.20
2006,08,23,17,01,18.20
2006,08,23,17,02,18.20
2006,08,23,17,03,18.20
2006,08,23,17,04,18.20
2006,08,23,17,05,18.20
2006,08,23,17,06,18.20
2006,08,23,17,07,18.20
2006,08,23,17,08,18.30
2006,08,23,17,09,18.30
2006,08,23,17,10,18.30
2006,08,23,17,11,18.20
2006,08,23,17,12,18.10
2006,08,23,17,13,18.00
2006,08,23,17,14,17.90
2006,08,23,17,15,17.80
2006,08,23,17,16,17.80
2006,08,23,17,17,17.90
2006,08,23,17,18,17.90
2006,08,23,17,19,17.90
2006,08,23,17,20,18.00
2006,08,23,17,21,17.90
2006,08,23,17,22,17.90
2006,08,23,17,23,17.90
2006,08,23,17,24,18.00
2006,08,23,17,25,18.10
2006,08,23,17,26,18.10
2006,08,23,17,27,18.20
2006,08,23,17,28,18.10
2006,08,23,17,29,18.10
2006,08,23,17,30,18.10
2006,08,23,17,31,18.10
2006,08,23,17,32,18.10
2006,08,23,17,33,18.10
2006,08,23,17,34,18.00
2006,08,23,17,35,17.90
2006,08,23,17,36,17.80
2006,08,23,17,37,17.70
2006,08,23,17,38,17.60
2006,08,23,17,39,17.50
2006,08,23,17,40,17.50
2006,08,23,17,41,17.40
2006,08,23,17,42,17.30
2006,08,23,17,43,17.30
2006,08,23,17,44,17.10
2006,08,23,17,45,17.10
2006,08,23,17,46,17.10
2006,08,23,17,47,17.20
2006,08,23,17,48,17.10
2006,08,23,17,49,17.00
2006,08,23,17,50,17.00
2006,08,23,17,51,17.00
2006,08,23,17,52,16.90
2006,08,23,17,53,16.80
2006,08,23,17,54,16.70
2006,08,23,17,55,16.60
2006,08,23,17,56,16.50
2006,08,23,17,57,16.40
2006,08,23,17,58,16.40
2006,08,23,17,59,16.40
2006,08,23,18,00,16.40
2006,08,23,18,01,16.40
2006,08,23,18,02,16.40
2006,08,23,18,03,16.40
2006,08,23,18,04,16.40
2006,08,23,18,05,16.40
2006,08,23,18,06,16.40
2006,08,23,18,07,16.40